Regional Weather Roundup
Issued by NWS Albany, NY

Home | Current Version | Previous Version | Text Only | Print | Product List | Glossary On
Versions: 1 2 3 4 5 6 7 8 9 10 11 12 13 14 15 16 17 18 19 20 21 22 23 24 25 26 27 28 29 30 31 32 33 34 35 36 37 38 39 40 41 42 43 44 45 46 47 48 49 50
000
ASUS41 KALY 121610
RWRALY

NEW YORK STATE HOURLY WEATHER ROUNDUP
NATIONAL WEATHER SERVICE ALBANY NY
1100 AM EST FRI FEB 12 2016

NOTE: "FAIR" INDICATES FEW OR NO CLOUDS BELOW 12,000 FEET WITH NO
SIGNIFICANT WEATHER AND/OR NO OBSTRUCTIONS TO VISIBILITY.

NYZ032-033-038>043-046>054-057>066-NYZ062>081-121700-
EAST


CITY           SKY/WX    TMP DP  RH WIND       PRES   REMARKS
ALBANY         CLOUDY    17   3  54 S10       30.13F WCI   5
GLENS FALLS    CLOUDY    13   2  61 SE9       30.11F WCI   1
POUGHKEEPSIE   SUNNY     22   2  42 SW5       30.19F WCI  16
NEWBURGH       PTSUNNY   19   5  53 W12       30.18F WCI   7
MONTGOMERY     MOSUNNY   21   1  41 W6        30.15F WCI  13
WHITE PLAINS   SUNNY     20   1  43 NW5       30.17F WCI  13
ISLIP          MOSUNNY   23  -1  35 NW5       30.21F WCI  17
NEW YORK CITY  PTSUNNY   23  -1  35 VRB3      30.22F
CENTRAL PARK   SUNNY     22  -3  33 VRB7      30.23F WCI  13
$$

NYZ005>009-017-018-044>046-055-056-121700-
CENTRAL


CITY           SKY/WX    TMP DP  RH WIND       PRES   REMARKS
FULTON         CLOUDY    20   8  60 SW16      30.01F WCI   6
SYRACUSE       CLOUDY    18   8  65 SW14      30.03F WCI   4
ROME           CLOUDY    17   4  56 CALM      30.06F
ELMIRA         MOSUNNY   20   6  55 SW17G24   30.04F WCI   5
BINGHAMTON     SUNNY     14   2  58 SW15G21   29.99F WCI  -1
MONTICELLO     CLOUDY    14   3  62 W8        30.07F WCI   3
$$

NYZ026>034-041>043-121700-
NORTH


CITY           SKY/WX    TMP DP  RH WIND       PRES   REMARKS
WATERTOWN      LGT SNOW  17  10  74 S13G22    29.96F VSB 1   WCI   4
FORT DRUM      NOT AVBL
MASSENA        CLOUDY    14   4  64 S7        29.99F WCI   4
SARANAC LAKE   CLOUDY     9   2  73 SW13G20   29.88F WCI  -7
PLATTSBURGH    PTSUNNY   11   1  64 S8        30.05F WCI  -1
$$

NYZ001>004-010>016-019>021-121700-
WEST


CITY           SKY/WX    TMP DP  RH WIND       PRES   REMARKS
NIAGARA FALLS  CLOUDY    24  11  57 SW20      29.97F WCI  10
BUFFALO        SNOW      18  12  77 S17G28    29.97F VSB 1/2 WCI   3
DUNKIRK        CLOUDY    19   9  65 S15       30.02F WCI   5
JAMESTOWN      CLOUDY    14   3  62 SW14G21   29.95F WCI  -1
WELLSVILLE     SUNNY     14   2  58 SW12G20   29.94F WCI   0
ROCHESTER      CLOUDY    21  10  62 SW22      29.99F WCI   5
PENN YAN       CLOUDY    20   5  52 SW16G24   30.00F WCI   6
$$

             KEY
       WCI = WIND CHILL INDEX
       VSB = VISIBILITY
       HX  = HEAT INDEX
$$



USA.gov is the U.S. government's official web portal to all federal, state and local government web resources and services.